[[{"header":{"parameterUnit":"m.s-1","parameterCategory":1,"la1":30.2991,"la2":30.254,"lo1":-89.0895,"lo2":-89.0444,"dy":0.0017,"dx":0.0017,"nx":28,"ny":28,"refTime":"2024-02-09T03:00:00:Z","depth":0,"parameterNumber":2,"parameterNumberName":"U-component_of_WINDS"},"data":[0,0,0,0,0,0,0,0,0,0,0,0,0,0,0,0,0,0,0,0,0,0,0,0,0,0,0,0,0,0,0,0,0,0,0,0,0,0,0,0,0,0,0,0,0,0,0,0,0,0,0,0,0,0,0,0,0,0,-2.7044,-2.7044,0,-2.7043,-2.7043,-2.7043,-2.703,-2.7029,-2.7029,-2.7029,-2.7027,-2.7028,-2.7028,0,0,0,0,0,0,0,0,0,0,0,0,0,-2.7032,-2.7032,-2.7044,-2.7044,-2.7044,-2.7043,-2.7043,-2.7043,-2.703,-2.7029,-2.7029,-2.7029,-2.7027,-2.7028,-2.7028,0,0,0,0,0,0,0,0,0,0,0,0,0,-2.7035,-2.7032,-2.7044,-2.7037,-2.7036,-2.7043,-2.7043,-2.7043,-2.703,-2.7029,-2.7029,-2.7028,-2.7027,-2.7028,-2.7028,-2.7041,0,0,-2.7029,-2.703,0,0,0,0,0,0,0,0,-2.7035,-2.7035,-2.7038,-2.7038,-2.7037,-2.7036,-2.7039,-2.7042,-2.703,-2.7032,-2.7029,-2.7028,-2.7031,-2.7031,-2.7032,-2.7041,-2.7041,-2.7029,-2.703,-2.703,-2.703,0,0,0,0,0,0,0,-2.7035,-2.7035,-2.7044,-2.7038,-2.7037,-2.7034,-2.7033,-2.7039,-2.7034,-2.7032,-2.7031,-2.7031,-2.703,-2.7031,-2.7032,-2.7041,-2.7029,-2.703,-2.703,-2.703,-2.7059,-2.7059,0,0,0,0,0,0,-2.7035,-2.7035,-2.7044,-2.7044,-2.7035,-2.7034,-2.7034,-2.7037,-2.7034,-2.7033,-2.7032,-2.7031,-2.7031,-2.7031,-2.7032,-2.7045,-2.703,-2.703,-2.7031,-2.7058,-2.7059,-2.706,0,0,0,0,0,0,-2.7035,-2.7036,-2.7044,-2.7039,-2.704,-2.7035,-2.7038,-2.7037,-2.7038,-2.7034,-2.7033,-2.7034,-2.7031,-2.7031,-2.7038,-2.7045,-2.703,-2.7031,-2.7058,-2.7059,-2.7059,-2.7074,0,0,0,0,0,0,-2.7035,-2.7036,-2.7042,-2.7039,-2.704,-2.7051,-2.7039,-2.7037,-2.7039,-2.7038,-2.7036,-2.7035,-2.703,-2.7038,-2.7039,-2.7045,-2.7031,-2.7057,-2.7058,-2.7059,-2.7073,-2.7075,-2.7077,0,0,0,0,0,-2.7035,-2.7046,-2.7042,-2.7043,-2.7047,-2.7052,-2.7052,-2.7046,-2.704,-2.7045,-2.7042,-2.7035,-2.7044,-2.7039,-2.704,-2.7047,-2.7057,-2.7058,-2.7059,-2.7072,-2.7075,-2.7077,0,0,0,0,0,0,-2.7049,-2.7046,-2.7041,-2.7052,-2.7052,-2.7049,-2.7055,-2.705,-2.7051,-2.705,-2.7043,-2.7042,-2.7051,-2.705,-2.7043,-2.7058,-2.7049,-2.7051,-2.7059,-2.7061,-2.7063,-2.7063,-2.7032,0,0,0,0,0,-2.7054,-2.7058,-2.7055,-2.7065,-2.7065,-2.706,-2.7062,-2.7058,-2.7057,-2.7057,-2.7055,-2.7055,-2.7057,-2.7059,-2.7062,-2.7073,-2.7071,-2.7078,-2.708,-2.7082,-2.7083,-2.7087,-2.7089,-2.7063,-2.7063,-2.7063,0,0,-2.7063,-2.7062,-2.7065,-2.7068,-2.7067,-2.7071,-2.706,-2.7066,-2.7068,-2.7058,-2.7065,-2.7063,-2.7062,-2.7071,-2.7075,-2.707,-2.7089,-2.7083,-2.7084,-2.7085,-2.7088,-2.7091,-2.7093,-2.7064,-2.7064,-2.7064,0,0,-2.7082,-2.7082,-2.709,-2.7089,-2.7089,-2.7085,-2.7087,-2.7085,-2.7083,-2.709,-2.7081,-2.7085,-2.709,-2.7089,-2.7089,-2.7107,-2.71,-2.7108,-2.7119,-2.7123,-2.7125,-2.7126,-2.7132,-2.7134,-2.7109,-2.7109,-2.7109,0,-2.7094,-2.71,-2.7094,-2.71,-2.7101,-2.7091,-2.7099,-2.7098,-2.7099,-2.7099,-2.7094,-2.7099,-2.7098,-2.7106,-2.711,-2.7111,-2.7112,-2.7108,-2.7125,-2.7127,-2.7128,-2.7133,-2.7135,-2.711,-2.711,-2.711,-2.711,0,-2.7114,-2.7118,-2.7125,-2.7125,-2.7126,-2.7133,-2.7127,-2.7129,-2.7125,-2.7121,-2.7127,-2.7126,-2.7127,-2.7129,-2.7124,-2.7135,-2.7132,-2.7126,-2.7117,-2.7132,-2.7136,-2.7138,-2.7111,-2.7111,-2.7111,-2.711,0,0,-2.7142,-2.7138,-2.7141,-2.714,-2.7138,-2.7141,-2.7146,-2.7148,-2.7149,-2.7149,-2.7153,-2.7157,-2.7151,-2.7151,-2.7147,-2.7151,-2.7163,-2.7144,-2.7144,-2.7147,-2.7174,-2.7177,-2.718,-2.7159,-2.7159,-2.716,-2.7173,0,-2.716,-2.7169,-2.7163,-2.7173,-2.7176,-2.7167,-2.7171,-2.717,-2.7167,-2.7169,-2.7166,-2.7168,-2.7161,-2.7161,-2.7164,-2.7161,-2.7168,-2.716,-2.7161,-2.7161,-2.7161,-2.7182,-2.7186,-2.7199,-2.7175,-2.7175,-2.7175,0,-2.7181,-2.7182,-2.7192,-2.7188,-2.7189,-2.7193,-2.7193,-2.7196,-2.7194,-2.7191,-2.7191,-2.7185,-2.7189,-2.7181,-2.7186,-2.718,-2.7181,-2.7179,-2.7179,-2.7178,-2.7169,-2.7181,-2.7204,-2.7205,-2.7178,-2.7178,-2.7178,0,-2.7199,-2.7203,-2.7209,-2.7208,-2.7205,-2.7207,-2.7206,-2.7204,-2.7204,-2.7204,-2.7204,-2.7205,-2.7205,-2.7205,-2.7199,-2.7193,-2.7204,-2.7196,-2.7201,-2.7201,-2.7203,-2.7203,-2.7226,-2.7205,-2.7205,-2.7205,-2.7205,0,-2.7218,-2.7225,-2.7216,-2.722,-2.7226,-2.722,-2.7226,-2.7223,-2.7221,-2.7223,-2.7216,-2.7218,-2.7211,-2.7212,-2.7207,-2.7211,-2.7212,-2.7209,-2.7208,-2.7209,-2.721,-2.7209,-2.7207,-2.7206,-2.7206,-2.7206,-2.7206,0,-2.7239,-2.7234,-2.724,-2.7236,-2.7235,-2.7239,-2.7235,-2.7238,-2.7234,-2.7237,-2.7238,-2.7232,-2.7233,-2.7227,-2.7227,-2.7224,-2.723,-2.7227,-2.7231,-2.7229,-2.7235,-2.7234,-2.7257,-2.7259,-2.7238,-2.7239,-2.7239,0,-2.7251,-2.7256,-2.7252,-2.7253,-2.7252,-2.7254,-2.7254,-2.7247,-2.7248,-2.7246,-2.7248,-2.7249,-2.7249,-2.7251,-2.7246,-2.7246,-2.7242,-2.725,-2.7242,-2.7243,-2.7241,-2.7241,-2.724,-2.7252,-2.7252,-2.7252,-2.7253,0,-2.7273,-2.727,-2.7271,-2.7271,-2.7272,-2.7271,-2.727,-2.7271,-2.7264,-2.7265,-2.7266,-2.7266,-2.7266,-2.7266,-2.7264,-2.7262,-2.7256,-2.7255,-2.7256,-2.7258,-2.7259,-2.7257,-2.7234,-2.7255,-2.7254,-2.7254,-2.7254,-2.7254,-2.7289,-2.7292,-2.7289,-2.729,-2.7289,-2.7288,-2.729,-2.7286,-2.7287,-2.7286,-2.7282,-2.7283,-2.728,-2.7278,-2.7276,-2.7277,-2.7273,-2.7275,-2.7275,-2.7275,-2.7276,-2.7259,-2.7277,-2.7277,-2.7277,-2.7277,-2.7276,0,-2.7309,-2.7307,-2.7308,-2.7307,-2.7307,-2.7301,-2.73,-2.73,-2.7302,-2.73,-2.7299,-2.73,-2.73,-2.7295,-2.7294,-2.7295,-2.7292,-2.7295,-2.7294,-2.7294,-2.728,-2.7279,-2.7297,-2.7297,-2.7297,-2.7297,-2.7297,-2.7297,-2.732,-2.7324,-2.7321,-2.7324,-2.7321,-2.7323,-2.7322,-2.7321,-2.7319,-2.732,-2.7319,-2.7316,-2.7313,-2.7311,-2.731,-2.7309,-2.7309,-2.7312,-2.731,-2.7297,-2.7295,-2.7293,-2.7291,-2.7312,-2.7312,-2.7323,-2.7323,-2.7323]},{"header":{"parameterUnit":"m.s-1","parameterCategory":1,"la1":30.2991,"la2":30.254,"lo1":-89.0895,"lo2":-89.0444,"dy":0.0017,"dx":0.0017,"nx":28,"ny":28,"refTime":"2024-02-09T03:00:00:Z","depth":0,"parameterNumber":3,"parameterNumberName":"V-component_of_WINDS"},"data":[0,0,0,0,0,0,0,0,0,0,0,0,0,0,0,0,0,0,0,0,0,0,0,0,0,0,0,0,0,0,0,0,0,0,0,0,0,0,0,0,0,0,0,0,0,0,0,0,0,0,0,0,0,0,0,0,0,0,2.0315,2.0318,0,2.0558,2.0561,2.0564,2.0678,2.0678,2.0678,2.0677,2.0933,2.094,2.0947,0,0,0,0,0,0,0,0,0,0,0,0,0,1.996,1.9966,2.0315,2.0318,2.0321,2.0558,2.0561,2.0564,2.0678,2.0678,2.0677,2.0677,2.0931,2.0939,2.0948,0,0,0,0,0,0,0,0,0,0,0,0,0,2.015,1.9968,2.0314,2.0406,2.0417,2.0557,2.0561,2.0565,2.0678,2.0678,2.0677,2.0677,2.0928,2.0939,2.0949,2.1018,0,0,2.0981,2.0985,0,0,0,0,0,0,0,0,2.0139,2.0163,2.039,2.04,2.0412,2.0587,2.053,2.0717,2.0678,2.0579,2.0677,2.0677,2.0819,2.0838,2.0885,2.103,2.1041,2.0982,2.0988,2.0993,2.0996,0,0,0,0,0,0,0,2.0125,2.0153,2.0411,2.0393,2.0407,2.0439,2.0465,2.0566,2.0698,2.0588,2.0596,2.0623,2.0825,2.0874,2.0892,2.1045,2.0981,2.0991,2.0997,2.1001,2.1267,2.1268,0,0,0,0,0,0,2.0096,2.0141,2.0404,2.0419,2.0272,2.0445,2.0475,2.0531,2.0697,2.0722,2.0623,2.0628,2.0857,2.0879,2.0901,2.0997,2.0992,2.1002,2.1008,2.1266,2.1267,2.1268,0,0,0,0,0,0,2.0088,2.0118,2.0394,2.0282,2.032,2.0451,2.0514,2.0536,2.0586,2.0724,2.0749,2.0649,2.0857,2.0886,2.0989,2.1008,2.1007,2.1016,2.1265,2.1266,2.1268,2.1188,0,0,0,0,0,0,2.0077,2.0115,2.014,2.0282,2.0325,2.0474,2.0515,2.0541,2.0602,2.0611,2.0754,2.0778,2.0859,2.0973,2.1,2.1022,2.1025,2.1264,2.1266,2.1267,2.1189,2.1186,2.1183,0,0,0,0,0,2.0064,2.0108,2.014,2.0171,2.0359,2.0475,2.05,2.0591,2.0603,2.0632,2.0721,2.0773,2.1001,2.0983,2.1014,2.1039,2.1264,2.1265,2.1267,2.1191,2.1187,2.1183,0,0,0,0,0,0,1.9966,2.0128,2.0166,2.0256,2.0351,2.0494,2.0532,2.0583,2.0678,2.0682,2.0793,2.0825,2.0919,2.099,2.0966,2.1119,2.1138,2.1145,2.1069,2.1066,2.1063,2.1045,2.1033,0,0,0,0,0,1.9954,2.0032,2.0171,2.0238,2.0283,2.0399,2.0453,2.0515,2.0619,2.066,2.0757,2.0858,2.0954,2.1014,2.1108,2.12,2.1236,2.1234,2.123,2.1227,2.1233,2.1293,2.1295,2.1274,2.1274,2.1274,0,0,1.9932,2.003,2.0073,2.022,2.0301,2.0383,2.0432,2.0516,2.0579,2.0674,2.0777,2.0852,2.0973,2.1072,2.112,2.1133,2.1247,2.1229,2.1226,2.1234,2.1295,2.1297,2.1298,2.1275,2.1275,2.1275,0,0,1.9933,2.0014,2.008,2.016,2.0282,2.0359,2.0375,2.0512,2.0565,2.067,2.0744,2.0823,2.0983,2.1067,2.1131,2.1169,2.1222,2.1197,2.1182,2.1238,2.124,2.1242,2.126,2.1264,2.1203,2.1202,2.1202,0,1.9891,2.0014,2.0108,2.0189,2.0254,2.0342,2.0413,2.0487,2.0634,2.0679,2.0691,2.0897,2.0984,2.1106,2.1116,2.1163,2.1189,2.1182,2.1231,2.1234,2.1238,2.1256,2.1262,2.1199,2.1199,2.12,2.12,0,1.9958,2.0043,2.0083,2.0221,2.0291,2.0366,2.0475,2.0535,2.0592,2.067,2.0779,2.0887,2.1008,2.1041,2.1097,2.1173,2.1178,2.1209,2.1231,2.1235,2.1254,2.1261,2.1194,2.1195,2.1196,2.1197,0,0,1.9903,2.0094,2.0108,2.0174,2.0316,2.0386,2.0467,2.0583,2.0635,2.0734,2.0809,2.0944,2.0975,2.1047,2.1115,2.1164,2.1193,2.119,2.1195,2.119,2.1288,2.1266,2.1272,2.1228,2.123,2.1231,2.128,0,1.9926,2.0073,2.0162,2.0275,2.0358,2.0445,2.0518,2.0615,2.0691,2.0775,2.086,2.0956,2.0987,2.1032,2.1085,2.1177,2.1215,2.1175,2.1303,2.1306,2.1272,2.1281,2.1257,2.1297,2.1287,2.1289,2.1289,0,1.9972,2.0069,2.0189,2.0327,2.0365,2.0428,2.0544,2.0622,2.0737,2.0789,2.0871,2.094,2.1035,2.1048,2.1183,2.1154,2.1212,2.1266,2.127,2.1288,2.1299,2.1302,2.1311,2.1318,2.1302,2.1301,2.13,0,1.9924,2.0085,2.0179,2.0232,2.0394,2.0437,2.0507,2.0621,2.0686,2.0789,2.0834,2.0947,2.101,2.1098,2.1197,2.1196,2.1324,2.1344,2.1374,2.1371,2.1397,2.1395,2.1419,2.143,2.143,2.143,2.143,0,1.9942,2.0013,2.016,2.0218,2.0302,2.0406,2.0488,2.0566,2.0667,2.0745,2.0828,2.0901,2.1026,2.1115,2.1194,2.1296,2.1323,2.1371,2.1392,2.1365,2.136,2.1406,2.1407,2.1431,2.1431,2.1431,2.143,0,1.9902,2.0002,2.0111,2.0256,2.0295,2.0351,2.0477,2.0539,2.062,2.0719,2.0748,2.0876,2.0986,2.1094,2.1241,2.1295,2.1398,2.1423,2.1358,2.137,2.1395,2.1392,2.1452,2.1468,2.1464,2.1464,2.1464,0,1.9907,1.9964,2.0116,2.0173,2.0241,2.0332,2.04,2.0506,2.0574,2.0712,2.0759,2.0874,2.0972,2.1145,2.1254,2.1369,2.14,2.1413,2.1418,2.1391,2.1405,2.1401,2.141,2.1411,2.141,2.141,2.1409,0,1.9908,1.9956,2.0049,2.0161,2.0239,2.0333,2.043,2.0473,2.06,2.0673,2.0785,2.0861,2.1013,2.1129,2.1257,2.1334,2.1395,2.1407,2.1421,2.1395,2.1357,2.1382,2.1353,2.1405,2.1406,2.1406,2.1406,2.1406,1.9894,1.995,2.0066,2.0169,2.0253,2.0343,2.041,2.05,2.0595,2.0725,2.0783,2.0898,2.1018,2.1196,2.1272,2.1367,2.1382,2.14,2.1406,2.1409,2.1405,2.1339,2.139,2.139,2.1391,2.1391,2.1391,0,1.9901,1.9981,2.0074,2.0208,2.029,2.0337,2.0449,2.0516,2.0615,2.0719,2.0815,2.0947,2.1061,2.118,2.1302,2.1355,2.1387,2.1384,2.1382,2.14,2.1383,2.136,2.1357,2.1357,2.1357,2.1357,2.1357,2.1357,1.9915,2.0014,2.0077,2.0221,2.0302,2.0413,2.0474,2.0559,2.0644,2.0787,2.0882,2.0958,2.1071,2.1202,2.131,2.1343,2.1386,2.1376,2.1417,2.1399,2.1401,2.1403,2.1382,2.1383,2.1383,2.1427,2.1427,2.1428]}]]